| time (UTC) | temp C | wind direction | speed KPH | gust KPH | rain 1hr cm | rain 24hr cm | rain mn cm | humidity % | barometer mb |
| 20260510114705 | 17 | 323 | 3.2 | 4.8 | 0.00 | 0.00 | 0.00 | 80 | 1007.8 |
| 20260510114205 | 17 | 330 | 1.6 | 4.8 | 0.00 | 0.00 | 0.00 | 80 | 1007.8 |
| 20260510111205 | 17 | 321 | 3.2 | 9.7 | 0.00 | 0.00 | 0.00 | 79 | 1007.8 |
| 20260510110705 | 17 | 329 | 3.2 | 11.3 | 0.00 | 0.00 | 0.00 | 79 | 1007.8 |
| 20260510101705 | 17 | 10 | 1.6 | 4.8 | 0.00 | 0.00 | 0.00 | 83 | 1007.9 |
| 20260510094705 | 17 | 12 | 3.2 | 4.8 | 0.00 | 0.00 | 0.00 | 83 | 1008.0 |
| 20260510084705 | 17 | 30 | 1.6 | 4.8 | 0.00 | 0.00 | 0.00 | 80 | 1007.9 |
| 20260510083704 | 17 | 30 | 3.2 | 4.8 | 0.00 | 0.00 | 0.00 | 81 | 1007.9 |
| 20260510080205 | 16 | 30 | 0.0 | 3.2 | 0.00 | 0.00 | 0.00 | 85 | 1007.9 |
| 20260510074704 | 16 | 30 | 0.0 | 3.2 | 0.00 | 0.00 | 0.00 | 88 | 1007.9 |
| 20260510074205 | 16 | 30 | 0.0 | 0.0 | 0.00 | 0.00 | 0.00 | 88 | 1007.9 |
| 20260510073704 | 15 | 30 | 0.0 | 0.0 | 0.00 | 0.00 | 0.00 | 88 | 1007.9 |
| 20260510071204 | 15 | 30 | 0.0 | 0.0 | 0.00 | 0.00 | 0.00 | 90 | 1007.9 |
| 20260510070205 | 15 | 30 | 0.0 | 3.2 | 0.00 | 0.00 | 0.00 | 90 | 1007.8 |
| 20260510064704 | 15 | 30 | 1.6 | 4.8 | 0.00 | 0.00 | 0.00 | 90 | 1007.8 |
| 20260510063705 | 14 | 30 | 1.6 | 4.8 | 0.00 | 0.00 | 0.00 | 90 | 1007.8 |
| 20260510063205 | 14 | 30 | 0.0 | 3.2 | 0.00 | 0.00 | 0.00 | 90 | 1007.8 |
| 20260510060704 | 13 | 30 | 1.6 | 4.8 | 0.00 | 0.00 | 0.00 | 91 | 1007.5 |
| 20260510060204 | 13 | 30 | 1.6 | 4.8 | 0.00 | 0.00 | 0.00 | 91 | 1007.5 |
| 20260510051705 | 13 | 30 | 0.0 | 0.0 | 0.00 | 0.00 | 0.00 | 92 | 1007.8 |
| 20260510050704 | 13 | 30 | 0.0 | 0.0 | 0.00 | 0.00 | 0.00 | 91 | 1007.8 |
| 20260510050205 | 13 | 30 | 0.0 | 0.0 | 0.00 | 0.00 | 0.00 | 91 | 1007.8 |
| 20260510043705 | 13 | 30 | 0.0 | 0.0 | 0.00 | 0.00 | 0.00 | 90 | 1007.9 |
| 20260510041705 | 13 | 30 | 0.0 | 0.0 | 0.00 | 0.00 | 0.00 | 89 | 1007.6 |
| 20260510041204 | 13 | 30 | 0.0 | 0.0 | 0.00 | 0.00 | 0.00 | 89 | 1007.6 |
| 20260510040705 | 13 | 30 | 0.0 | 0.0 | 0.00 | 0.00 | 0.00 | 89 | 1007.6 |
| 20260510040204 | 13 | 30 | 0.0 | 3.2 | 0.00 | 0.00 | 0.00 | 89 | 1007.6 |
| 20260510034205 | 13 | 30 | 0.0 | 0.0 | 0.00 | 0.00 | 0.00 | 88 | 1007.9 |
| 20260510033704 | 13 | 30 | 0.0 | 1.6 | 0.00 | 0.00 | 0.00 | 88 | 1007.9 |
| 20260510031205 | 13 | 30 | 0.0 | 0.0 | 0.00 | 0.00 | 0.00 | 86 | 1008.3 |
| 20260510030704 | 13 | 30 | 0.0 | 0.0 | 0.00 | 0.00 | 0.00 | 86 | 1008.3 |
| 20260510030205 | 14 | 30 | 0.0 | 3.2 | 0.00 | 0.00 | 0.00 | 85 | 1008.3 |
| 20260510024705 | 14 | 30 | 0.0 | 0.0 | 0.00 | 0.00 | 0.00 | 84 | 1008.3 |
| 20260510024204 | 14 | 30 | 0.0 | 0.0 | 0.00 | 0.00 | 0.00 | 84 | 1008.4 |
| 20260510023705 | 14 | 30 | 0.0 | 0.0 | 0.00 | 0.00 | 0.00 | 84 | 1008.4 |
| 20260510021704 | 14 | 30 | 0.0 | 4.8 | 0.00 | 0.00 | 0.00 | 82 | 1008.4 |
| 20260510020204 | 15 | 30 | 3.2 | 8.0 | 0.00 | 0.00 | 0.00 | 81 | 1008.4 |
| 20260510014204 | 15 | 30 | 1.6 | 9.7 | 0.00 | 0.00 | 0.00 | 79 | 1009.0 |
| 20260510013704 | 15 | 29 | 0.0 | 4.8 | 0.00 | 0.00 | 0.00 | 79 | 1009.0 |
| 20260510013204 | 15 | 29 | 3.2 | 8.0 | 0.00 | 0.00 | 0.00 | 80 | 1009.0 |
| 20260510011704 | 15 | 29 | 1.6 | 8.0 | 0.00 | 0.00 | 0.00 | 81 | 1009.0 |
| 20260510011205 | 15 | 29 | 1.6 | 4.8 | 0.00 | 0.00 | 0.00 | 81 | 1009.0 |
| 20260510004704 | 15 | 29 | 1.6 | 8.0 | 0.00 | 0.00 | 0.00 | 81 | 1009.0 |
| 20260510003705 | 15 | 29 | 1.6 | 19.3 | 0.00 | 0.00 | 0.00 | 82 | 1009.4 |
| 20260510001705 | 14 | 40 | 1.6 | 9.7 | 0.00 | 0.00 | 0.00 | 83 | 1009.4 |
| 20260510001205 | 14 | 40 | 3.2 | 4.8 | 0.00 | 0.00 | 0.00 | 83 | 1009.4 |
| 20260510000704 | 14 | 41 | 3.2 | 4.8 | 0.00 | 0.00 | 0.00 | 83 | 1009.4 |
| 20260510000204 | 14 | 42 | 3.2 | 4.8 | 0.00 | 0.00 | 0.00 | 83 | 1009.1 |
| 20260509234704 | 14 | 46 | 1.6 | 3.2 | 0.00 | 0.00 | 0.00 | 83 | 1009.0 |
| 20260509234205 | 14 | 46 | 1.6 | 3.2 | 0.00 | 0.00 | 0.00 | 81 | 1009.1 |
| 20260509233704 | 14 | 46 | 1.6 | 4.8 | 0.00 | 0.00 | 0.00 | 80 | 1009.1 |
| 20260509233205 | 14 | 46 | 1.6 | 3.2 | 0.00 | 0.00 | 0.00 | 80 | 1009.1 |
| 20260509224705 | 15 | 46 | 0.0 | 0.0 | 0.00 | 0.00 | 0.00 | 74 | 1009.4 |
| 20260509224205 | 15 | 46 | 0.0 | 3.2 | 0.00 | 0.00 | 0.00 | 73 | 1009.5 |
| 20260509223205 | 15 | 46 | 0.0 | 0.0 | 0.00 | 0.00 | 0.00 | 72 | 1009.5 |
| 20260509221704 | 15 | 46 | 0.0 | 0.0 | 0.00 | 0.00 | 0.00 | 71 | 1009.5 |
| 20260509220205 | 15 | 46 | 0.0 | 1.6 | 0.00 | 0.00 | 0.00 | 71 | 1009.4 |
| 20260509213705 | 16 | 46 | 0.0 | 1.6 | 0.00 | 0.00 | 0.00 | 71 | 1009.5 |
| 20260509213204 | 16 | 46 | 0.0 | 3.2 | 0.00 | 0.00 | 0.00 | 71 | 1009.5 |
| 20260509211705 | 16 | 46 | 0.0 | 3.2 | 0.00 | 0.00 | 0.00 | 70 | 1009.6 |
| 20260509203704 | 16 | 46 | 0.0 | 3.2 | 0.00 | 0.00 | 0.00 | 68 | 1009.7 |
| 20260509201205 | 16 | 46 | 0.0 | 0.0 | 0.00 | 0.00 | 0.00 | 66 | 1009.7 |
| 20260509200205 | 17 | 46 | 0.0 | 0.0 | 0.00 | 0.00 | 0.00 | 65 | 1009.0 |
| 20260509194705 | 17 | 46 | 0.0 | 0.0 | 0.00 | 0.00 | 0.00 | 63 | 1009.0 |
| 20260509194204 | 17 | 46 | 0.0 | 0.0 | 0.00 | 0.00 | 0.00 | 62 | 1009.0 |
| 20260509193204 | 17 | 46 | 0.0 | 0.0 | 0.00 | 0.00 | 0.00 | 62 | 1009.0 |
| 20260509190704 | 18 | 46 | 0.0 | 0.0 | 0.00 | 0.00 | 0.00 | 59 | 1009.0 |
| 20260509190205 | 18 | 46 | 0.0 | 0.0 | 0.00 | 0.00 | 0.00 | 58 | 1009.0 |
| 20260509174204 | 22 | 46 | 1.6 | 3.2 | 0.00 | 0.00 | 0.00 | 47 | 1008.8 |
| 20260509173204 | 22 | 46 | 1.6 | 8.0 | 0.00 | 0.00 | 0.00 | 46 | 1008.7 |
| 20260509171704 | 22 | 46 | 3.2 | 8.0 | 0.00 | 0.00 | 0.00 | 46 | 1008.7 |
| 20260509171204 | 22 | 46 | 1.6 | 4.8 | 0.00 | 0.00 | 0.00 | 46 | 1008.7 |
| 20260509163704 | 23 | 46 | 1.6 | 8.0 | 0.00 | 0.00 | 0.00 | 44 | 1009.0 |
| 20260509163205 | 23 | 46 | 1.6 | 8.0 | 0.00 | 0.00 | 0.00 | 44 | 1009.0 |
| 20260509161704 | 23 | 45 | 3.2 | 4.8 | 0.00 | 0.00 | 0.00 | 40 | 1009.3 |
| 20260509161204 | 24 | 49 | 1.6 | 4.8 | 0.00 | 0.00 | 0.00 | 41 | 1009.3 |
| 20260509154205 | 24 | 56 | 1.6 | 4.8 | 0.00 | 0.00 | 0.00 | 40 | 1009.4 |
| 20260509153705 | 24 | 56 | 1.6 | 4.8 | 0.00 | 0.00 | 0.00 | 41 | 1009.4 |
| 20260509151704 | 24 | 48 | 1.6 | 4.8 | 0.00 | 0.00 | 0.00 | 39 | 1009.4 |
| 20260509150704 | 24 | 45 | 0.0 | 4.8 | 0.00 | 0.00 | 0.00 | 39 | 1009.5 |
| 20260509144704 | 24 | 45 | 1.6 | 4.8 | 0.00 | 0.00 | 0.00 | 38 | 1009.5 |
| 20260509144204 | 24 | 42 | 3.2 | 4.8 | 0.00 | 0.00 | 0.00 | 42 | 1009.5 |
| 20260509140204 | 23 | 46 | 3.2 | 4.8 | 0.00 | 0.00 | 0.00 | 42 | 1009.8 |
| 20260509134204 | 24 | 47 | 3.2 | 8.0 | 0.00 | 0.00 | 0.00 | 38 | 1010.1 |
| 20260509133204 | 24 | 51 | 1.6 | 8.0 | 0.00 | 0.00 | 0.00 | 42 | 1010.1 |
| 20260509131204 | 23 | 59 | 1.6 | 8.0 | 0.00 | 0.00 | 0.00 | 39 | 1010.6 |
| 20260509130204 | 24 | 75 | 3.2 | 16.1 | 0.00 | 0.00 | 0.00 | 41 | 1010.6 |
| 20260509121704 | 24 | 44 | 0.0 | 4.8 | 0.00 | 0.00 | 0.00 | 41 | 1010.7 |
| 20260509121204 | 24 | 46 | 3.2 | 8.0 | 0.00 | 0.00 | 0.00 | 41 | 1010.7 |